VJT402 EGGW-LGKR

Flight info

Callsign VJT402
Flight time 2h 46m
Altitude 39000
Route MATCH Q295 BRAIN P44 DAGGA M85 ITVIP L10 DVR UL9 KONAN DCT KOK UL607 REMBA DCT LIRSU DCT KRH DCT BATUB DCT TIRUL M738 NATAG DCT LORLO DCT BORMI DCT AKADO DCT IXONA DCT AMUGO DCT VAKSU DCT RODON DCT LIMJA N732 PITAS
Aircraft CL60/M-ICAO/HB1D1

Departure

Time 2026-05-04 12:56
Airport London Luton Airport (EGGW)

Arrival

Time 2026-05-04 15:42
Airport Corfu Ioannis Kapodistrias International Airport (LGKR)
Time Latitude Longitude Altitude Speed Heading
2026-05-04 12:22 51.87714 -0.37812 527 ft 0 kts 206°
2026-05-04 12:51 51.87713 -0.37830 527 ft 5 kts 309°
2026-05-04 12:51 51.87748 -0.37798 528 ft 8 kts 54°
2026-05-04 12:52 51.87732 -0.37676 527 ft 15 kts 118°
2026-05-04 12:52 51.87680 -0.37507 526 ft 17 kts 129°
2026-05-04 12:52 51.87560 -0.37460 529 ft 18 kts 193°
2026-05-04 12:52 51.87491 -0.37627 530 ft 20 kts 255°
2026-05-04 12:53 51.87452 -0.37866 525 ft 24 kts 254°
2026-05-04 12:53 51.87369 -0.38061 517 ft 15 kts 207°
2026-05-04 12:53 51.87358 -0.38071 516 ft 0 kts 207°
2026-05-04 12:54 51.87357 -0.38072 516 ft 1 kts 207°
2026-05-04 12:54 51.87297 -0.38116 512 ft 14 kts 186°
2026-05-04 12:55 51.87259 -0.38034 517 ft 0 kts 79°
2026-05-04 12:55 51.87260 -0.38024 517 ft 6 kts 77°
2026-05-04 12:55 51.87358 -0.37440 531 ft 103 kts 75°
2026-05-04 12:55 51.87615 -0.35915 688 ft 166 kts 74°
2026-05-04 12:56 51.87950 -0.34036 1376 ft 185 kts 71°
2026-05-04 12:56 51.88297 -0.32083 2529 ft 184 kts 73°
2026-05-04 12:56 51.88633 -0.30109 3515 ft 194 kts 73°
2026-05-04 12:56 51.89005 -0.27916 4309 ft 213 kts 74°
2026-05-04 12:57 51.89406 -0.25539 4859 ft 227 kts 75°
2026-05-04 12:57 51.89711 -0.23020 4980 ft 229 kts 92°
2026-05-04 12:57 51.89175 -0.20699 4971 ft 224 kts 133°
2026-05-04 12:57 51.87821 -0.19367 5064 ft 241 kts 158°
2026-05-04 12:58 51.86252 -0.18375 6313 ft 244 kts 159°
2026-05-04 12:58 51.84782 -0.17429 7848 ft 233 kts 159°
2026-05-04 12:58 51.83296 -0.16455 9048 ft 236 kts 159°
2026-05-04 12:58 51.81788 -0.15447 10170 ft 240 kts 159°
2026-05-04 12:59 51.80270 -0.14397 11260 ft 244 kts 158°
2026-05-04 12:59 51.78721 -0.13292 12313 ft 249 kts 158°
2026-05-04 12:59 51.77127 -0.11999 12925 ft 273 kts 146°
2026-05-04 12:59 51.75815 -0.09695 13622 ft 292 kts 118°
2026-05-04 13:00 51.75341 -0.06532 14515 ft 301 kts 88°
2026-05-04 13:00 51.75584 -0.03187 15437 ft 307 kts 82°
2026-05-04 13:00 51.75881 0.00233 16385 ft 312 kts 83°
2026-05-04 13:00 51.76173 0.03685 17286 ft 315 kts 83°
2026-05-04 13:01 51.76464 0.07158 18200 ft 318 kts 83°
2026-05-04 13:01 51.76762 0.10723 19065 ft 322 kts 83°
2026-05-04 13:01 51.77058 0.14292 19823 ft 327 kts 83°
2026-05-04 13:01 51.77359 0.17944 20538 ft 334 kts 84°
2026-05-04 13:02 51.77667 0.21686 21281 ft 339 kts 84°
2026-05-04 13:02 51.77973 0.25439 21973 ft 344 kts 84°
2026-05-04 13:02 51.78287 0.29299 22622 ft 350 kts 84°
2026-05-04 13:02 51.78601 0.33182 23314 ft 354 kts 84°
2026-05-04 13:03 51.78919 0.37117 23957 ft 360 kts 84°
2026-05-04 13:03 51.79239 0.41116 24642 ft 363 kts 84°
2026-05-04 13:03 51.79556 0.45086 25289 ft 366 kts 84°
2026-05-04 13:03 51.79880 0.49173 25854 ft 372 kts 84°
2026-05-04 13:04 51.80208 0.53325 26486 ft 374 kts 84°
2026-05-04 13:04 51.80536 0.57495 27038 ft 378 kts 84°
2026-05-04 13:04 51.80868 0.61744 27579 ft 382 kts 84°
2026-05-04 13:04 51.81195 0.65932 28106 ft 385 kts 85°
2026-05-04 13:05 51.81338 0.70125 28641 ft 383 kts 98°
2026-05-04 13:05 51.80785 0.74296 29063 ft 380 kts 116°
2026-05-04 13:05 51.79498 0.77997 29539 ft 373 kts 133°
2026-05-04 13:05 51.77649 0.80857 30029 ft 367 kts 150°
2026-05-04 13:06 51.75409 0.82727 30508 ft 361 kts 165°
2026-05-04 13:06 51.73000 0.83943 30888 ft 363 kts 167°
2026-05-04 13:06 51.70565 0.85127 31260 ft 366 kts 167°
2026-05-04 13:06 51.68096 0.86332 31647 ft 369 kts 167°
2026-05-04 13:07 51.65614 0.87542 32022 ft 370 kts 166°
2026-05-04 13:07 51.63152 0.88741 32361 ft 373 kts 166°
2026-05-04 13:07 51.60625 0.89970 32702 ft 375 kts 166°
2026-05-04 13:07 51.58126 0.91184 33043 ft 376 kts 166°
2026-05-04 13:08 51.55608 0.92406 33396 ft 378 kts 166°
2026-05-04 13:08 51.53056 0.93643 33734 ft 378 kts 166°
2026-05-04 13:08 51.50576 0.94844 34109 ft 378 kts 166°
2026-05-04 13:08 51.48068 0.96058 34585 ft 374 kts 166°
2026-05-04 13:09 51.45581 0.97260 34986 ft 371 kts 166°
2026-05-04 13:09 51.43108 0.98453 35226 ft 370 kts 166°
2026-05-04 13:09 51.40630 0.99646 35350 ft 372 kts 166°
2026-05-04 13:09 51.38128 1.00851 35546 ft 373 kts 166°
2026-05-04 13:10 51.35634 1.02050 35715 ft 374 kts 166°
2026-05-04 13:10 51.33147 1.03476 35834 ft 378 kts 158°
2026-05-04 13:10 51.30809 1.05426 35977 ft 382 kts 150°
2026-05-04 13:10 51.28632 1.07933 36105 ft 386 kts 142°
2026-05-04 13:11 51.26673 1.10988 36289 ft 389 kts 134°
2026-05-04 13:11 51.25022 1.14457 36538 ft 391 kts 126°
2026-05-04 13:11 51.23545 1.18089 36736 ft 392 kts 126°
2026-05-04 13:11 51.22059 1.21755 36977 ft 392 kts 126°
2026-05-04 13:12 51.20561 1.25437 37179 ft 392 kts 126°
2026-05-04 13:12 51.19057 1.29132 37360 ft 392 kts 124°
2026-05-04 13:12 51.17713 1.32944 37577 ft 394 kts 117°
2026-05-04 13:12 51.16709 1.37031 37746 ft 397 kts 109°
2026-05-04 13:13 51.16083 1.41307 37878 ft 400 kts 100°
2026-05-04 13:13 51.15798 1.45768 38051 ft 401 kts 96°
2026-05-04 13:13 51.15596 1.50173 38233 ft 402 kts 96°
2026-05-04 13:13 51.15385 1.54633 38378 ft 402 kts 96°
2026-05-04 13:14 51.15169 1.59128 38535 ft 402 kts 96°
2026-05-04 13:14 51.14956 1.63546 38684 ft 402 kts 96°
2026-05-04 13:14 51.14739 1.67982 38844 ft 402 kts 96°
2026-05-04 13:14 51.14520 1.72433 38966 ft 403 kts 96°
2026-05-04 13:15 51.14301 1.76814 38958 ft 407 kts 96°
2026-05-04 13:15 51.13847 1.85807 39003 ft 414 kts 96°
2026-05-04 13:16 51.13379 1.94900 39006 ft 422 kts 96°
2026-05-04 13:16 51.12899 2.04088 38941 ft 429 kts 96°
2026-05-04 13:17 51.12398 2.13524 39012 ft 435 kts 96°
2026-05-04 13:17 51.11882 2.23105 39014 ft 440 kts 96°
2026-05-04 13:18 51.11351 2.32781 38973 ft 447 kts 96°
2026-05-04 13:18 51.10806 2.42586 39000 ft 452 kts 96°
2026-05-04 13:19 51.10239 2.52621 38972 ft 458 kts 97°
2026-05-04 13:19 51.09646 2.62795 38975 ft 461 kts 98°
2026-05-04 13:20 51.08183 2.72655 39073 ft 460 kts 109°
2026-05-04 13:20 51.06405 2.82448 39044 ft 462 kts 109°
2026-05-04 13:21 51.04602 2.92332 38990 ft 465 kts 108°
2026-05-04 13:21 51.02785 3.02256 39058 ft 465 kts 108°
2026-05-04 13:22 51.00958 3.12171 38971 ft 470 kts 108°
2026-05-04 13:22 50.99106 3.22178 38895 ft 473 kts 109°
2026-05-04 13:23 50.97230 3.32258 38902 ft 475 kts 109°
2026-05-04 13:23 50.95340 3.42359 38929 ft 477 kts 109°
2026-05-04 13:24 50.93436 3.52483 38955 ft 478 kts 109°
2026-05-04 13:24 50.91518 3.62625 38977 ft 479 kts 109°
2026-05-04 13:25 50.88605 3.77782 38952 ft 483 kts 109°
2026-05-04 13:25 50.86620 3.88026 38941 ft 484 kts 109°
2026-05-04 13:26 50.84639 3.98200 38983 ft 485 kts 110°
2026-05-04 13:26 50.82644 4.08392 38985 ft 486 kts 110°
2026-05-04 13:27 50.80638 4.18584 38965 ft 487 kts 110°
2026-05-04 13:27 50.78623 4.28769 38994 ft 488 kts 110°
2026-05-04 13:28 50.76590 4.38995 38975 ft 487 kts 110°
2026-05-04 13:28 50.74560 4.49144 39002 ft 488 kts 110°
2026-05-04 13:29 50.72507 4.59363 38998 ft 488 kts 110°
2026-05-04 13:29 50.70526 4.69544 38994 ft 490 kts 110°
2026-05-04 13:30 50.68540 4.79772 38976 ft 490 kts 110°
2026-05-04 13:30 50.66559 4.89870 38971 ft 488 kts 111°
2026-05-04 13:31 50.63892 4.99433 38923 ft 486 kts 118°
2026-05-04 13:31 50.62494 5.04073 39024 ft 485 kts 118°
2026-05-04 13:31 50.61064 5.08808 38965 ft 486 kts 118°
2026-05-04 13:32 50.58226 5.18188 38977 ft 487 kts 118°
2026-05-04 13:32 50.55342 5.27683 38988 ft 487 kts 118°
2026-05-04 13:33 50.52429 5.37244 39002 ft 487 kts 119°
2026-05-04 13:33 50.49552 5.46652 38999 ft 487 kts 118°
2026-05-04 13:34 50.46656 5.56084 38979 ft 487 kts 118°
2026-05-04 13:34 50.43789 5.65391 38993 ft 487 kts 120°
2026-05-04 13:35 50.39410 5.79539 38954 ft 487 kts 120°
2026-05-04 13:36 50.36504 5.88883 38981 ft 487 kts 120°
2026-05-04 13:36 50.33633 5.98079 38942 ft 488 kts 120°
2026-05-04 13:37 50.30696 6.07453 38978 ft 487 kts 120°
2026-05-04 13:37 50.27765 6.16771 38951 ft 487 kts 120°
2026-05-04 13:38 50.24813 6.26122 38977 ft 486 kts 120°
2026-05-04 13:38 50.21869 6.35414 38973 ft 486 kts 120°
2026-05-04 13:39 50.18805 6.44586 38991 ft 483 kts 126°
2026-05-04 13:39 50.14750 6.52641 38982 ft 479 kts 134°
2026-05-04 13:40 50.10504 6.60517 39027 ft 479 kts 134°
2026-05-04 13:40 50.06249 6.68384 39038 ft 479 kts 134°
2026-05-04 13:41 50.02050 6.76123 39016 ft 478 kts 134°
2026-05-04 13:41 49.97852 6.83834 39032 ft 479 kts 134°
2026-05-04 13:42 49.91646 6.95189 39034 ft 478 kts 134°
2026-05-04 13:42 49.87527 7.02698 39040 ft 478 kts 134°
2026-05-04 13:43 49.83801 7.09471 39047 ft 478 kts 134°
2026-05-04 13:43 49.79645 7.17002 39032 ft 477 kts 134°
2026-05-04 13:44 49.76345 7.22968 39053 ft 477 kts 134°
2026-05-04 13:45 49.72067 7.30679 39050 ft 478 kts 134°
2026-05-04 13:45 49.67778 7.38389 39037 ft 477 kts 134°
2026-05-04 13:46 49.63477 7.46096 39006 ft 478 kts 134°
2026-05-04 13:46 49.59182 7.53770 39003 ft 478 kts 134°
2026-05-04 13:47 49.54885 7.61426 39002 ft 478 kts 134°
2026-05-04 13:47 49.50581 7.69070 39033 ft 477 kts 135°
2026-05-04 13:48 49.46247 7.76746 38991 ft 477 kts 135°
2026-05-04 13:48 49.41965 7.84307 39001 ft 477 kts 135°
2026-05-04 13:49 49.37626 7.91948 38966 ft 477 kts 135°
2026-05-04 13:49 49.33330 7.99490 38939 ft 478 kts 135°
2026-05-04 13:50 49.29036 8.07007 38970 ft 477 kts 135°
2026-05-04 13:50 49.24753 8.14483 38963 ft 477 kts 135°
2026-05-04 13:51 49.20468 8.21942 38959 ft 477 kts 135°
2026-05-04 13:51 49.16192 8.29364 38950 ft 477 kts 135°
2026-05-04 13:53 49.04915 8.48835 38947 ft 477 kts 135°
2026-05-04 13:53 49.00588 8.56197 38951 ft 476 kts 138°
2026-05-04 13:54 48.95690 8.62154 38954 ft 468 kts 149°
2026-05-04 13:54 48.92921 8.64994 38961 ft 469 kts 149°
2026-05-04 13:55 48.84939 8.73184 38967 ft 470 kts 150°
2026-05-04 13:55 48.77031 8.81262 38968 ft 471 kts 150°
2026-05-04 13:56 48.71820 8.86567 38966 ft 471 kts 150°
2026-05-04 13:57 48.63708 8.94798 38969 ft 471 kts 150°
2026-05-04 13:58 48.52922 9.05689 38931 ft 471 kts 149°
2026-05-04 13:58 48.44798 9.13854 38982 ft 470 kts 150°
2026-05-04 13:59 48.39384 9.19277 38982 ft 471 kts 149°
2026-05-04 14:00 48.31253 9.27396 38978 ft 470 kts 150°
2026-05-04 14:00 48.23080 9.35523 38977 ft 472 kts 149°
2026-05-04 14:01 48.17640 9.40916 38986 ft 471 kts 149°
2026-05-04 14:02 48.09447 9.49011 38954 ft 471 kts 149°
2026-05-04 14:02 48.04023 9.54353 38976 ft 470 kts 150°
2026-05-04 14:03 47.98610 9.59791 38975 ft 471 kts 148°
2026-05-04 14:03 47.93243 9.65288 38983 ft 471 kts 149°
2026-05-04 14:04 47.85297 9.73393 38944 ft 472 kts 149°
2026-05-04 14:04 47.79979 9.78801 38931 ft 473 kts 149°
2026-05-04 14:05 47.72087 9.86799 38962 ft 473 kts 149°
2026-05-04 14:06 47.66772 9.92170 39027 ft 472 kts 149°
2026-05-04 14:06 47.61373 9.97609 38994 ft 474 kts 149°
2026-05-04 14:07 47.56049 10.02961 39049 ft 473 kts 149°
2026-05-04 14:07 47.50764 10.08260 39037 ft 473 kts 149°
2026-05-04 14:08 47.45409 10.13615 39071 ft 474 kts 149°
2026-05-04 14:08 47.40090 10.18920 39062 ft 475 kts 149°
2026-05-04 14:09 47.32070 10.26896 39089 ft 475 kts 149°
2026-05-04 14:10 47.23940 10.34950 39127 ft 475 kts 149°
2026-05-04 14:10 47.18504 10.40317 39096 ft 476 kts 149°
2026-05-04 14:11 47.13081 10.45661 39125 ft 475 kts 149°
2026-05-04 14:11 47.04812 10.53058 39147 ft 470 kts 159°
2026-05-04 14:12 46.98660 10.56079 39124 ft 469 kts 165°
2026-05-04 14:13 46.89418 10.60257 39137 ft 470 kts 165°
2026-05-04 14:13 46.83255 10.63035 39139 ft 471 kts 165°
2026-05-04 14:14 46.77102 10.65803 39134 ft 470 kts 166°
2026-05-04 14:14 46.68073 10.70988 39127 ft 474 kts 157°
2026-05-04 14:15 46.56381 10.79378 39112 ft 475 kts 157°
2026-05-04 14:16 46.47529 10.85696 39138 ft 476 kts 157°
2026-05-04 14:17 46.38704 10.91970 39152 ft 477 kts 157°
2026-05-04 14:18 46.29835 10.98251 39107 ft 477 kts 157°
2026-05-04 14:19 46.17954 11.06627 39070 ft 476 kts 157°
2026-05-04 14:19 46.12030 11.10788 39087 ft 477 kts 157°
2026-05-04 14:20 46.06244 11.15372 39041 ft 480 kts 148°
2026-05-04 14:20 46.01209 11.21687 39065 ft 487 kts 135°
2026-05-04 14:21 45.95039 11.33278 39076 ft 490 kts 129°
2026-05-04 14:21 45.90962 11.41144 39071 ft 491 kts 129°
2026-05-04 14:22 45.86896 11.48967 39072 ft 491 kts 129°
2026-05-04 14:22 45.82800 11.56827 39049 ft 491 kts 129°
2026-05-04 14:23 45.76674 11.68537 39086 ft 492 kts 129°
2026-05-04 14:24 45.72541 11.76411 39057 ft 493 kts 129°
2026-05-04 14:24 45.68437 11.84207 39072 ft 493 kts 129°
2026-05-04 14:25 45.64298 11.92049 39072 ft 493 kts 129°
2026-05-04 14:25 45.58099 12.03753 39075 ft 493 kts 129°
2026-05-04 14:26 45.53956 12.11546 39074 ft 493 kts 129°
2026-05-04 14:26 45.49809 12.19326 39076 ft 493 kts 129°
2026-05-04 14:27 45.45663 12.27083 39079 ft 492 kts 129°
2026-05-04 14:27 45.41493 12.34864 39070 ft 494 kts 129°
2026-05-04 14:28 45.37329 12.42612 39077 ft 494 kts 129°
2026-05-04 14:28 45.33166 12.50388 39071 ft 494 kts 127°
2026-05-04 14:29 45.25605 12.66843 39067 ft 495 kts 125°
2026-05-04 14:30 45.21840 12.75048 39034 ft 496 kts 125°
2026-05-04 14:31 45.16188 12.87313 39055 ft 495 kts 125°
2026-05-04 14:32 45.08623 13.03637 39056 ft 496 kts 125°
2026-05-04 14:32 45.04825 13.11795 39059 ft 496 kts 125°
2026-05-04 14:33 45.01032 13.19918 39064 ft 496 kts 125°
2026-05-04 14:33 44.97212 13.28076 39073 ft 498 kts 124°
2026-05-04 14:34 44.93372 13.36249 39071 ft 498 kts 124°
2026-05-04 14:34 44.89539 13.44388 39041 ft 497 kts 124°
2026-05-04 14:35 44.85722 13.52467 39126 ft 496 kts 124°
2026-05-04 14:35 44.81676 13.60383 39127 ft 495 kts 128°
2026-05-04 14:36 44.77532 13.68143 39130 ft 495 kts 128°
2026-05-04 14:36 44.73371 13.75919 39097 ft 497 kts 128°
2026-05-04 14:37 44.69210 13.83675 39155 ft 499 kts 128°
2026-05-04 14:37 44.65007 13.91490 39119 ft 498 kts 128°
2026-05-04 14:38 44.60811 13.99272 39078 ft 498 kts 128°
2026-05-04 14:38 44.56609 14.07044 39083 ft 498 kts 128°
2026-05-04 14:39 44.52417 14.14777 39061 ft 498 kts 128°
2026-05-04 14:39 44.48198 14.22541 39073 ft 499 kts 128°
2026-05-04 14:40 44.41846 14.34191 39060 ft 499 kts 128°
2026-05-04 14:40 44.37620 14.41914 39064 ft 499 kts 128°
2026-05-04 14:41 44.33390 14.49627 39081 ft 499 kts 128°
2026-05-04 14:42 44.24883 14.65072 39060 ft 500 kts 129°
2026-05-04 14:42 44.20639 14.72748 39063 ft 500 kts 129°
2026-05-04 14:43 44.16378 14.80433 39082 ft 499 kts 128°
2026-05-04 14:43 44.12150 14.88040 39069 ft 499 kts 129°
2026-05-04 14:44 44.07856 14.95744 39066 ft 500 kts 128°
2026-05-04 14:44 44.03617 15.03329 39115 ft 499 kts 128°
2026-05-04 14:45 43.99332 15.10978 39130 ft 499 kts 128°
2026-05-04 14:45 43.95042 15.18614 39125 ft 499 kts 128°
2026-05-04 14:46 43.90741 15.26249 39093 ft 502 kts 128°
2026-05-04 14:46 43.86424 15.33894 39114 ft 501 kts 128°
2026-05-04 14:47 43.82084 15.41559 39081 ft 501 kts 128°
2026-05-04 14:47 43.77730 15.49228 39132 ft 499 kts 128°
2026-05-04 14:48 43.73407 15.56823 39081 ft 501 kts 128°
2026-05-04 14:48 43.69085 15.64397 39074 ft 501 kts 128°
2026-05-04 14:49 43.64760 15.71955 39068 ft 501 kts 129°
2026-05-04 14:49 43.60410 15.79538 39063 ft 501 kts 129°
2026-05-04 14:50 43.56048 15.87124 39084 ft 501 kts 129°
2026-05-04 14:50 43.51651 15.94749 39123 ft 501 kts 129°
2026-05-04 14:51 43.47288 16.02295 39104 ft 502 kts 128°
2026-05-04 14:51 43.42945 16.09788 39130 ft 502 kts 128°
2026-05-04 14:52 43.38565 16.17324 39110 ft 502 kts 128°
2026-05-04 14:52 43.34166 16.24875 39092 ft 503 kts 128°
2026-05-04 14:53 43.29794 16.32359 39119 ft 503 kts 128°
2026-05-04 14:53 43.25434 16.39804 39082 ft 504 kts 128°
2026-05-04 14:54 43.21012 16.47334 39100 ft 504 kts 128°
2026-05-04 14:54 43.16609 16.54814 39087 ft 504 kts 128°
2026-05-04 14:55 43.12205 16.62277 39098 ft 503 kts 128°
2026-05-04 14:55 43.07783 16.69749 39093 ft 504 kts 129°
2026-05-04 14:56 43.03335 16.77247 39086 ft 505 kts 129°
2026-05-04 14:56 42.98823 16.84833 39097 ft 505 kts 129°
2026-05-04 14:57 42.94338 16.92356 39113 ft 505 kts 129°
2026-05-04 14:57 42.89832 16.99892 39114 ft 505 kts 129°
2026-05-04 14:58 42.85370 17.07336 39119 ft 506 kts 129°
2026-05-04 14:58 42.81631 17.13560 39100 ft 507 kts 129°
2026-05-04 14:59 42.76399 17.22247 39102 ft 507 kts 128°
2026-05-04 15:00 42.69653 17.33410 39103 ft 507 kts 128°
2026-05-04 15:00 42.65112 17.40900 39096 ft 508 kts 128°
2026-05-04 15:01 42.58322 17.52065 39103 ft 508 kts 128°
2026-05-04 15:01 42.53801 17.59543 39099 ft 508 kts 127°
2026-05-04 15:02 42.49521 17.67255 39102 ft 509 kts 126°
2026-05-04 15:02 42.45232 17.74988 39106 ft 510 kts 126°
2026-05-04 15:03 42.40976 17.82640 39124 ft 511 kts 126°
2026-05-04 15:03 42.36649 17.90395 39110 ft 511 kts 126°
2026-05-04 15:04 42.32365 17.98050 39098 ft 511 kts 126°
2026-05-04 15:04 42.28028 18.05780 39136 ft 511 kts 126°
2026-05-04 15:05 42.23712 18.13452 39104 ft 511 kts 126°
2026-05-04 15:05 42.19394 18.21107 39089 ft 510 kts 126°
2026-05-04 15:06 42.15063 18.28765 39121 ft 509 kts 126°
2026-05-04 15:07 42.08582 18.40188 39103 ft 510 kts 126°
2026-05-04 15:07 42.04292 18.47724 39103 ft 510 kts 126°
2026-05-04 15:08 41.99459 18.54702 39095 ft 512 kts 139°
2026-05-04 15:08 41.93795 18.60648 39090 ft 514 kts 141°
2026-05-04 15:09 41.88135 18.66531 39104 ft 514 kts 142°
2026-05-04 15:09 41.82435 18.72439 39100 ft 514 kts 142°
2026-05-04 15:10 41.73933 18.81224 39085 ft 514 kts 142°
2026-05-04 15:11 41.65363 18.90047 39099 ft 513 kts 142°
2026-05-04 15:11 41.59721 18.95838 39094 ft 513 kts 142°
2026-05-04 15:12 41.54053 19.01642 39085 ft 514 kts 142°
2026-05-04 15:12 41.48309 19.07438 39088 ft 515 kts 145°
2026-05-04 15:13 41.42005 19.11873 39075 ft 513 kts 159°
2026-05-04 15:13 41.35233 19.15197 39121 ft 514 kts 160°
2026-05-04 15:14 41.28455 19.18507 39108 ft 515 kts 160°
2026-05-04 15:14 41.21646 19.21824 39067 ft 515 kts 160°
2026-05-04 15:15 41.14835 19.25134 39097 ft 514 kts 160°
2026-05-04 15:15 41.11728 19.26642 39099 ft 515 kts 160°
2026-05-04 15:16 41.01542 19.31572 39116 ft 516 kts 160°
2026-05-04 15:17 40.91382 19.36472 39106 ft 515 kts 160°
2026-05-04 15:17 40.81158 19.41388 39069 ft 517 kts 160°
2026-05-04 15:18 40.74400 19.44628 38845 ft 513 kts 160°
2026-05-04 15:18 40.71009 19.46251 38522 ft 513 kts 160°
2026-05-04 15:19 40.64324 19.49446 38005 ft 504 kts 160°
2026-05-04 15:19 40.61016 19.51025 37576 ft 494 kts 160°
2026-05-04 15:19 40.54641 19.54060 36607 ft 479 kts 161°
2026-05-04 15:20 40.51554 19.55527 36163 ft 473 kts 161°
2026-05-04 15:20 40.48443 19.57003 35546 ft 467 kts 161°
2026-05-04 15:20 40.45413 19.58440 34940 ft 463 kts 161°
2026-05-04 15:20 40.42341 19.59895 34284 ft 459 kts 161°
2026-05-04 15:21 40.39354 19.61307 33497 ft 456 kts 161°
2026-05-04 15:21 40.36333 19.62735 32481 ft 459 kts 161°
2026-05-04 15:21 40.30298 19.65582 30480 ft 459 kts 162°
2026-05-04 15:22 40.27241 19.67023 29478 ft 459 kts 161°
2026-05-04 15:22 40.24215 19.68447 28471 ft 458 kts 161°
2026-05-04 15:22 40.18186 19.71282 26440 ft 455 kts 161°
2026-05-04 15:23 40.15176 19.72613 25426 ft 451 kts 167°
2026-05-04 15:23 40.12050 19.72982 24427 ft 441 kts 187°
2026-05-04 15:23 40.09110 19.72059 23418 ft 429 kts 204°
2026-05-04 15:23 40.06296 19.70611 22371 ft 424 kts 206°
2026-05-04 15:24 40.00825 19.67699 20326 ft 414 kts 206°
2026-05-04 15:24 39.95497 19.64869 18296 ft 404 kts 206°
2026-05-04 15:25 39.92900 19.63472 17279 ft 399 kts 206°
2026-05-04 15:25 39.90328 19.62069 16251 ft 394 kts 206°
2026-05-04 15:25 39.87786 19.60682 15253 ft 389 kts 206°
2026-05-04 15:26 39.82814 19.57913 13213 ft 380 kts 206°
2026-05-04 15:26 39.80375 19.56538 12220 ft 374 kts 206°
2026-05-04 15:26 39.75631 19.53789 10162 ft 363 kts 206°
2026-05-04 15:27 39.73316 19.52412 9139 ft 357 kts 206°
2026-05-04 15:27 39.68890 19.49641 7119 ft 343 kts 215°
2026-05-04 15:28 39.66510 19.44658 5180 ft 317 kts 269°
2026-05-04 15:28 39.66899 19.41923 4726 ft 288 kts 299°
2026-05-04 15:28 39.69768 19.39507 4553 ft 228 kts
2026-05-04 15:29 39.71272 19.39815 4544 ft 205 kts 19°
2026-05-04 15:30 39.74689 19.44866 4513 ft 188 kts 63°
2026-05-04 15:30 39.76326 19.49556 4504 ft 188 kts 63°
2026-05-04 15:31 39.77395 19.52620 4265 ft 186 kts 63°
2026-05-04 15:31 39.77942 19.54185 4010 ft 188 kts 64°
2026-05-04 15:32 39.79573 19.58856 3702 ft 187 kts 63°
2026-05-04 15:32 39.80664 19.61987 3700 ft 188 kts 64°
2026-05-04 15:33 39.81757 19.65123 3714 ft 188 kts 64°
2026-05-04 15:34 39.83405 19.69854 3717 ft 188 kts 64°
2026-05-04 15:34 39.83946 19.71409 3715 ft 188 kts 64°
2026-05-04 15:34 39.85046 19.74576 3729 ft 187 kts 64°
2026-05-04 15:35 39.85944 19.77764 3697 ft 190 kts 86°
2026-05-04 15:35 39.85595 19.79436 3714 ft 194 kts 116°
2026-05-04 15:35 39.84926 19.80981 3716 ft 194 kts 117°
2026-05-04 15:36 39.83595 19.84081 3713 ft 193 kts 117°
2026-05-04 15:36 39.82937 19.85617 3706 ft 193 kts 117°
2026-05-04 15:36 39.82273 19.87166 3720 ft 194 kts 117°
2026-05-04 15:37 39.81617 19.88695 3671 ft 187 kts 117°
2026-05-04 15:37 39.80927 19.90145 3290 ft 187 kts 131°
2026-05-04 15:37 39.79823 19.91001 3201 ft 190 kts 166°
2026-05-04 15:37 39.78480 19.91240 3217 ft 193 kts 175°
2026-05-04 15:38 39.77125 19.91393 3211 ft 193 kts 175°
2026-05-04 15:38 39.75771 19.91391 3153 ft 194 kts 189°
2026-05-04 15:38 39.74489 19.90889 3197 ft 174 kts 204°
2026-05-04 15:38 39.73485 19.90322 3211 ft 154 kts 205°
2026-05-04 15:39 39.72528 19.89751 2907 ft 145 kts 206°
2026-05-04 15:39 39.71619 19.89198 2500 ft 144 kts 206°
2026-05-04 15:39 39.69622 19.88838 1931 ft 152 kts 172°
2026-05-04 15:40 39.68555 19.89101 1925 ft 156 kts 169°
2026-05-04 15:40 39.67519 19.89331 1748 ft 140 kts 171°
2026-05-04 15:40 39.66585 19.89540 1490 ft 129 kts 169°
2026-05-04 15:40 39.65705 19.89788 1256 ft 126 kts 168°
2026-05-04 15:41 39.64841 19.90025 976 ft 127 kts 171°
2026-05-04 15:41 39.63979 19.90234 769 ft 121 kts 171°
2026-05-04 15:41 39.63136 19.90464 526 ft 121 kts 171°
2026-05-04 15:41 39.62242 19.90682 375 ft 136 kts 171°
2026-05-04 15:42 39.61364 19.90916 144 ft 117 kts 171°
2026-05-04 15:42 39.60572 19.91120 16 ft 110 kts 172°
2026-05-04 15:42 39.59925 19.91283 7 ft 68 kts 169°
2026-05-04 15:42 39.59613 19.91359 8 ft 35 kts 169°
2026-05-04 15:43 39.59359 19.91428 8 ft 39 kts 170°
2026-05-04 15:43 39.59188 19.91504 8 ft 6 kts 177°
2026-05-04 15:43 39.59256 19.91455 8 ft 26 kts 351°
2026-05-04 15:43 39.59478 19.91396 8 ft 38 kts 350°
2026-05-04 15:44 39.59774 19.91324 8 ft 46 kts 349°
2026-05-04 15:44 39.60099 19.91240 5 ft 48 kts 348°
2026-05-04 15:44 39.60419 19.91157 4 ft 35 kts 349°
2026-05-04 15:44 39.60672 19.91091 5 ft 38 kts 349°
2026-05-04 15:45 39.60954 19.91019 8 ft 38 kts 349°
2026-05-04 15:45 39.61054 19.91091 8 ft 8 kts 96°
2026-05-04 15:45 39.60982 19.91139 8 ft 16 kts 169°
2026-05-04 15:45 39.60931 19.91200 8 ft 10 kts 77°
2026-05-04 15:46 39.60938 19.91243 8 ft 0 kts 78°